Weather in Chemlyzh

Russia / Bryansk Oblast     52°14′43″N   34°25′15″E
В апреле 2022 года жителям России запретили посещать сайт meteo.paraplan.net по решению Генеральной прокуратуры. Аудитория сайта уменьшилась в 10 раз. Владельцы сайта не видят смысла в поддержке погодного сервера в таких условиях. Сайт будет закрыт в октябре.
temp.,
°C
wind,
m/s
gust,
m/s
humid.,
%
clouds,
%
prec.,
mm/h
press.,
hPa
HPBL,
m
30 september, fri
fri3000:00+10sse4986100 0.0 1013156
03:00+11se4995100 0.0 1013194
06:00+12sse51291100 0.6 1013336
09:00+12sse41097100 1.4 1013325
12:00+18ssw457461 0.0 1014804
15:00+19ssw3468100 0.0 10141050
18:00+17wsw1276100 0.2 101514
21:00+16ese2281100 0.2 101517
1 october, sat
sat100:00+15se238879 0.0 101534
03:00+14sse3493100 0.1 101577
06:00+14s249768 1.6 1015102
09:00+16ssw23895 1.6 1014175
12:00+20ssw5867100 0.0 1013790
15:00+20sw71171100 0.8 10121325
18:00+15wsw61175100 0.3 1013583
21:00+14wsw4979100 0.3 1013574
2 october, sun
sun200:00+12sw368494 0.0 1012281
03:00+11wsw1189100 0.0 101224
06:00+12ssw1188100 0.1 101139
09:00+12ese2289100 0.3 1010226
12:00+13ene3491100 0.5 1007329
15:00+13ene4894100 1.7 1004443
18:00+12n6898100 16.0 1001354
21:00+10n81496100 27.3 999561
3 october, mon
mon300:00+9nw81393100 1.8 999706
03:00+8nw71392100 2.1 999796
06:00+8nw61289100 0.0 1000717
09:00+8wnw71089100 0.1 1001970
12:00+8w6987100 0.1 1003894
15:00+8w6987100 0.2 1004895
18:00+8sw4986100 0.0 1006370
21:00+8sw51083100 0.1 1007289
4 october, tue
tue400:00+7sw499285 0.1 1009271
03:00+6ssw499722 0.1 1010224
06:00+6ssw499993 0.0 1011252
09:00+8ssw51094100 0.1 1012565
12:00+9ssw51189100 0.4 1012715
15:00+11ssw687976 0.8 1013909
18:00+9s41091100 0.8 1014443
21:00+9s499395 0.9 1015323